Location: Recife
(8.0585°S, 34.8848°W)
Time: 20:53:47
(UTC-03:00)

Explorer 11/Cluster Stage 4 - Pass Details

Date: 17 April 2026
Orbit: 463 x 1174 km, 28.8° (Epoch: 16 May)

Event Time Altitude Azimuth Distance (km) Brightness Sun altitude
Rises 17:01:51 0° 321° (NW) 3,867 11.0 2.7°
Reaches altitude 10° 17:05:15 10° 333° (NNW) 2,814 10.0 1.9°
Maximum altitude 17:10:50 27° 28° (NNE) 1,707 8.2 0.5°
Drops below altitude 10° 17:15:40 10° 83° (E) 2,409 8.5 -0.7°
Enters shadow 17:18:00 - 95° (E) 3,108 8.9 -1.2°
Sets 17:18:20 0° 96° (E) 3,215 - -1.3°
